User: anonymous   Login
Location: Poprad
(49.0500°N, 20.3000°E)
Time: 01:29:36
(UTC+02:00)
Language:

Oscar 19 - Orbit

View from above orbital plane
View from above orbital plane
View from above satellite
View from above satellite

Ground track
Ground track

The orbit data is extracted from the following two-line orbital elements,

1 20442U 90005G   24114.50238461  .00000687  00000-0  26532-3 0  9999
2 20442  98.8811 103.3393 0011525 351.8208   8.2785 14.33498448790006
Epoch (UTC): 23 April 2024 12:03:26
Eccentricity: 0.0011525
inclination: 98.8811°
perigee height: 772 km
apogee height: 788 km
right ascension of ascending node: 103.3393°
argument of perigee: 351.8208°
revolutions per day: 14.33498448
mean anomaly at epoch: 8.2785°
orbit number at epoch: 79000

The dashed part of the orbit path shows where the satellite is in the earth's shadow,  

DLR